Wind_Speed
96 97 95 95 93 95 95 95 92 92 89 88 88 88 89 89 87 86 81 81 78 78 79 79 78 79 88 80 78 70 71 70 68 62 67 58 49 48 48 42 45 36 27 31 27
102 102 100 101 100 100 100 97 95 95 92 92 93 93 92 93 90 87 89 88 86 85 84 84 79 77 88 87 84 77 72 72 73 69 68 54 53 55 50 39 39 36 34 33 30
99 99 104 103 102 104 101 100 99 98 99 97 97 99 95 96 96 94 94 91 90 90 88 88 84 81 87 92 86 83 73 74 74 72 68 66 60 54 49 41 39 30 28 31 31
104 102 100 103 104 106 107 105 106 105 104 101 105 105 102 98 99 95 97 96 93 88 84 85 80 82 84 91 92 88 79 79 76 74 72 67 65 60 53 52 42 32 31 32 35
108 105 106 104 103 103 105 106 104 106 106 108 109 107 104 105 101 98 97 95 90 86 84 86 85 82 85 92 94 90 87 82 82 75 72 69 68 63 60 55 47 36 37 37 35
110 110 110 106 108 107 104 106 108 108 111 107 108 108 103 100 100 97 97 96 91 88 84 87 89 86 87 91 95 93 92 85 83 79 73 67 65 59 59 61 54 47 41 37 37
113 113 113 110 112 110 109 107 106 107 109 111 111 110 106 99 99 97 97 95 90 86 84 87 89 87 87 93 93 95 93 93 81 83 76 68 64 58 62 54 56 53 44 42 36
119 120 117 119 115 116 115 116 113 112 110 111 110 108 104 100 96 95 94 92 91 86 83 87 90 91 89 93 99 95 96 92 85 81 79 75 65 65 64 58 54 53 44 44 36
123 124 123 124 122 121 120 121 121 119 116 114 111 105 99 96 95 95 94 93 89 87 84 88 92 94 94 97 102 96 95 94 90 83 83 78 68 70 67 63 61 55 49 53 54
115 120 125 127 126 123 122 123 124 120 117 114 109 105 97 96 97 97 95 94 90 90 88 87 94 97 98 96 95 91 89 87 93 91 82 77 74 74 69 63 61 63 59 49 38
116 116 118 122 126 128 127 126 122 117 112 107 106 104 100 99 100 98 97 95 91 88 90 90 96 95 95 95 100 100 95 88 82 87 90 79 78 77 73 69 63 62 58 55 51
121 118 117 120 122 124 123 119 118 114 113 111 108 105 103 102 99 98 96 93 89 87 93 93 91 95 102 104 105 104 107 105 88 87 90 82 76 77 76 70 65 65 65 59 61
128 126 123 125 126 126 121 121 121 115 113 111 109 107 104 101 99 98 94 89 86 89 91 93 92 102 108 108 110 111 108 100 101 95 93 86 83 79 76 70 69 65 57 58 56
126 124 134 132 137 128 123 125 123 119 118 115 109 105 100 94 89 93 91 86 85 88 92 94 95 104 111 111 113 112 106 106 109 100 100 92 87 77 76 67 69 68 64 57 55
114 118 127 133 126 125 125 127 124 122 121 110 103 97 92 87 81 86 88 87 85 90 93 89 95 103 113 115 118 112 111 111 105 100 100 97 89 74 75 69 65 69 67 62 63
101 105 109 117 125 123 124 120 119 116 103 94 89 83 81 79 80 84 86 84 85 88 89 90 95 104 113 121 122 118 115 114 111 110 109 96 91 81 68 62 66 72 69 65 68
92 92 99 108 109 106 106 102 101 98 84 80 76 74 76 77 78 81 83 83 83 86 86 88 95 101 113 123 125 124 122 120 118 117 105 90 89 72 68 71 69 68 69 75 76
86 87 91 89 92 94 93 91 85 73 72 65 70 74 74 78 77 78 84 82 81 83 83 88 95 100 110 121 122 122 126 126 119 112 100 96 86 75 70 72 69 67 69 75 77
87 87 85 85 85 85 92 81 64 62 65 64 71 74 74 73 74 78 79 78 78 81 83 86 92 98 106 118 124 125 130 122 116 109 106 102 83 80 76 67 66 65 69 70 69
90 88 88 85 86 87 86 67 66 68 67 67 69 70 69 69 72 74 76 71 73 77 81 81 90 97 104 117 125 124 124 120 119 115 113 101 89 77 78 77 73 68 71 72 70
93 92 91 87 89 94 77 62 67 65 67 65 64 68 69 71 74 76 74 72 74 75 80 78 85 93 101 115 122 126 125 129 120 113 101 95 93 84 83 83 75 73 70 69 68
94 94 96 97 96 94 74 67 69 68 65 64 65 67 70 72 74 77 73 75 75 77 77 78 80 91 97 107 121 126 127 126 122 113 100 99 98 92 92 87 84 76 78 70 66
97 98 103 98 97 89 77 73 73 67 65 65 63 65 67 73 74 76 73 78 78 76 76 77 79 85 97 107 121 128 127 126 123 115 113 103 96 95 96 88 87 80 78 74 68
101 104 105 95 94 88 76 67 70 66 66 67 67 67 68 73 75 75 74 77 78 77 77 79 80 84 88 93 104 118 120 123 123 125 113 104 96 94 97 99 87 82 79 77 69
107 107 102 99 100 89 81 67 66 68 65 68 68 66 67 71 73 73 76 79 78 78 77 82 81 84 87 95 102 114 123 125 130 120 122 103 104 102 101 101 98 88 85 78 71
109 106 106 104 99 94 82 70 69 66 65 68 68 66 67 68 73 78 80 80 77 75 76 77 78 80 85 87 99 108 119 126 128 121 120 116 107 105 106 99 95 93 87 82 78
105 108 110 105 95 82 76 66 62 67 71 73 77 75 72 75 78 75 74 76 77 75 76 76 73 77 86 88 95 108 110 119 122 127 121 118 101 106 108 104 99 94 92 89 85
Wind_Direction
248 249 248 247 245 245 245 246 245 248 249 251 254 256 256 256 256 259 258 256 254 250 249 248 246 239 238 235 233 231 228 232 229 227 231 235 230 231 239 240 240 237 239 239 243
244 245 243 243 244 245 244 243 244 245 247 249 252 253 254 254 256 258 256 255 255 254 253 250 250 243 235 234 232 230 231 230 232 229 231 225 226 226 231 237 232 231 237 237 235
243 244 243 243 243 244 242 242 244 245 248 247 250 253 253 254 255 256 257 257 258 257 252 252 249 244 235 233 233 230 230 234 231 232 232 229 226 223 232 234 223 223 228 228 228
238 241 242 245 243 244 245 245 245 246 247 247 251 253 253 255 256 256 256 254 254 253 250 249 246 240 234 232 229 232 229 232 232 231 232 228 231 228 229 229 226 224 226 228 228
239 241 243 242 242 244 244 246 246 248 249 249 251 252 253 256 255 257 255 255 253 252 249 247 247 236 232 231 230 231 231 229 233 230 231 231 233 231 233 233 230 227 211 216 225
240 242 241 243 243 244 245 245 246 248 249 249 251 253 253 254 256 256 257 256 253 251 249 246 243 237 232 230 228 229 231 228 231 232 229 227 231 229 233 235 234 225 220 217 219
242 242 241 242 243 243 244 247 247 248 248 251 252 254 256 254 257 257 255 254 252 250 247 243 238 236 231 229 228 227 230 227 226 229 230 223 227 224 228 225 228 228 221 217 225
244 244 243 241 241 243 245 247 248 248 249 252 253 255 255 256 254 256 254 252 251 249 245 239 235 233 228 227 226 226 226 229 227 228 229 226 223 223 223 225 231 220 221 220 225
245 244 245 245 244 243 245 246 247 249 251 253 255 256 256 256 254 253 253 251 250 248 243 237 233 231 225 225 225 225 226 227 228 226 228 230 224 224 223 224 226 224 224 228 230
243 244 245 246 246 246 247 248 248 250 252 255 256 256 256 256 254 253 251 251 248 247 242 235 231 227 226 223 225 225 223 229 229 226 225 225 224 227 223 217 227 228 226 228 231
244 243 243 246 247 247 248 249 251 253 254 255 254 254 253 254 254 253 251 249 248 243 241 234 227 225 224 222 221 222 214 209 221 226 224 221 226 229 223 222 228 230 232 232 224
244 244 245 245 246 247 247 248 250 251 251 251 251 251 253 255 254 253 251 248 243 238 235 232 226 221 220 218 217 218 218 217 214 222 224 219 221 227 228 222 226 231 231 231 232
243 244 246 247 247 248 249 250 250 250 251 252 253 254 254 255 254 250 247 243 236 233 231 229 222 218 216 216 215 215 216 212 219 220 223 218 220 224 228 223 223 227 228 231 236
241 241 246 244 245 246 248 250 252 252 252 253 254 254 254 252 248 246 240 235 231 229 228 226 222 217 214 212 214 215 214 210 213 215 222 218 219 222 227 223 220 224 228 226 228
238 238 239 247 249 247 249 249 251 252 251 252 252 249 247 243 236 236 234 231 228 227 227 223 221 217 213 210 213 211 211 211 212 214 220 220 221 219 224 226 226 227 229 229 229
233 234 235 239 243 245 245 245 246 247 247 247 246 244 240 236 231 232 233 229 227 227 226 223 220 218 212 210 211 207 207 207 209 213 219 221 220 217 225 219 224 222 221 222 226
228 229 231 232 240 242 245 244 243 244 245 242 239 236 231 228 227 228 231 229 227 226 225 222 219 218 214 212 211 207 205 205 210 214 218 216 221 215 217 218 220 225 227 228 230
223 224 228 231 234 236 238 237 238 239 236 234 231 228 224 223 223 224 227 227 226 226 224 222 220 216 215 214 212 209 208 209 212 214 214 214 215 210 216 218 223 225 227 227 229
219 220 221 222 226 228 232 232 231 231 231 224 223 222 221 221 223 222 224 226 226 226 224 222 219 217 215 215 213 210 209 208 211 210 210 212 209 214 212 220 220 219 222 226 226
215 216 218 219 221 224 229 224 225 226 225 219 217 218 219 220 220 223 224 222 223 224 224 221 219 217 215 216 214 211 208 207 208 209 211 213 211 209 209 217 220 222 224 227 231
211 211 214 212 214 223 225 221 221 222 222 218 216 215 216 217 219 220 221 219 221 222 223 221 220 218 217 216 215 213 211 207 208 210 209 209 207 206 209 218 217 224 226 230 232
207 207 211 212 211 222 219 216 218 218 218 216 212 214 215 216 219 221 219 218 220 220 222 220 217 217 218 218 216 216 212 209 208 207 202 209 206 208 210 220 221 225 230 227 230
202 204 211 212 216 220 217 213 216 214 213 214 213 214 216 218 220 222 220 218 218 221 222 222 218 217 219 218 217 216 215 211 209 206 203 205 205 213 212 215 222 224 229 230 230
198 202 208 212 213 215 217 211 212 210 210 210 212 213 214 218 219 220 221 221 219 220 221 222 219 218 219 220 221 219 218 213 210 208 205 207 209 216 218 216 218 223 226 226 231
198 202 207 206 210 211 213 206 212 213 211 211 212 213 214 217 220 219 220 221 219 219 220 219 219 217 217 219 220 220 217 214 213 210 210 206 208 211 218 221 222 224 225 225 232
200 201 205 207 208 212 211 207 210 210 212 212 213 215 216 218 219 219 220 221 221 218 222 220 218 220 222 221 220 220 219 217 214 211 211 208 207 211 217 222 223 223 225 225 227
201 202 205 209 212 214 215 208 210 209 212 210 212 214 216 216 218 219 221 222 221 219 222 222 220 220 217 221 223 222 219 218 217 214 210 211 209 213 219 222 223 221 224 227 230
Height
10618 10624 10631 10637 10644 10650 10656 10661 10668 10675 10683 10691 10697 10705 10713 10720 10728 10738 10748 10749 10757 10765 10770 10781 10786 10793 10795 10806 10812 10819 10827 10828 10833 10841 10845 10856 10863 10868 10873 10876 10876 10880 10884 10885 10887
10595 10602 10607 10615 10620 10627 10636 10641 10648 10656 10664 10673 10679 10685 10695 10703 10713 10724 10726 10731 10739 10746 10754 10761 10768 10774 10781 10790 10797 10807 10817 10814 10822 10827 10839 10848 10852 10856 10864 10867 10868 10873 10877 10879 10882
10569 10576 10582 10589 10596 10604 10612 10620 10627 10634 10644 10652 10660 10667 10676 10685 10694 10703 10707 10714 10722 10726 10735 10743 10752 10756 10764 10773 10784 10796 10807 10807 10813 10821 10832 10839 10843 10851 10856 10860 10860 10866 10872 10874 10875
10540 10548 10556 10564 10571 10580 10588 10596 10605 10612 10622 10630 10638 10647 10657 10668 10674 10685 10687 10691 10700 10706 10717 10721 10730 10737 10748 10756 10766 10779 10792 10795 10802 10809 10819 10826 10834 10845 10848 10847 10857 10862 10866 10867 10869
10515 10523 10531 10539 10547 10553 10561 10570 10580 10588 10597 10607 10616 10625 10637 10648 10654 10661 10662 10669 10681 10687 10694 10701 10707 10719 10729 10739 10751 10767 10775 10782 10786 10798 10809 10817 10826 10834 10839 10843 10852 10855 10857 10859 10864
10485 10496 10504 10513 10521 10529 10537 10545 10556 10565 10573 10581 10592 10604 10618 10631 10630 10642 10644 10646 10658 10667 10674 10680 10688 10695 10708 10721 10735 10751 10754 10772 10778 10787 10797 10808 10816 10831 10829 10837 10841 10846 10849 10853 10857
10455 10465 10475 10486 10494 10503 10511 10521 10530 10541 10549 10556 10568 10579 10596 10606 10611 10615 10621 10625 10636 10645 10652 10656 10666 10677 10693 10701 10718 10728 10741 10754 10769 10774 10784 10797 10806 10820 10812 10825 10828 10837 10841 10846 10851
10428 10438 10445 10458 10468 10478 10486 10496 10505 10515 10525 10532 10544 10558 10577 10582 10589 10592 10598 10605 10611 10621 10628 10635 10645 10655 10672 10688 10699 10713 10727 10743 10757 10759 10768 10785 10798 10801 10801 10814 10818 10826 10832 10838 10842
10399 10408 10417 10426 10441 10453 10460 10470 10478 10488 10499 10509 10524 10537 10552 10563 10565 10566 10569 10580 10589 10595 10605 10612 10622 10636 10652 10666 10678 10699 10723 10733 10739 10746 10758 10773 10785 10783 10793 10805 10807 10816 10823 10828 10835
10368 10378 10389 10398 10408 10424 10434 10442 10452 10466 10477 10492 10504 10515 10534 10534 10533 10537 10544 10552 10564 10569 10579 10590 10600 10614 10634 10649 10677 10702 10711 10716 10724 10732 10742 10759 10773 10767 10781 10793 10797 10807 10815 10820 10828
10338 10349 10361 10370 10381 10391 10404 10415 10434 10450 10464 10475 10478 10480 10496 10501 10505 10512 10520 10529 10540 10550 10557 10566 10575 10603 10627 10646 10659 10671 10685 10692 10700 10709 10727 10742 10756 10757 10767 10784 10789 10797 10805 10812 10818
10308 10323 10335 10343 10353 10362 10373 10396 10409 10421 10424 10434 10448 10457 10471 10476 10484 10487 10495 10506 10517 10527 10530 10543 10574 10590 10596 10615 10633 10650 10663 10678 10689 10699 10710 10722 10738 10740 10752 10774 10778 10786 10794 10801 10806
10277 10295 10309 10315 10323 10332 10356 10364 10369 10388 10396 10407 10421 10431 10444 10450 10459 10464 10470 10484 10495 10504 10514 10526 10550 10557 10572 10594 10612 10628 10649 10663 10676 10679 10689 10704 10722 10730 10741 10759 10768 10777 10785 10790 10797
10248 10274 10269 10280 10282 10311 10330 10335 10345 10360 10365 10381 10399 10410 10421 10430 10437 10439 10446 10459 10474 10485 10490 10506 10524 10537 10553 10576 10596 10615 10639 10643 10650 10661 10677 10685 10710 10719 10727 10750 10759 10765 10776 10783 10786
10218 10241 10248 10245 10272 10291 10304 10304 10315 10323 10329 10358 10372 10386 10396 10407 10420 10418 10423 10437 10452 10459 10469 10499 10503 10516 10535 10565 10571 10605 10610 10622 10634 10645 10656 10672 10695 10713 10717 10741 10750 10757 10765 10770 10774
10191 10208 10225 10223 10235 10252 10258 10276 10283 10289 10318 10340 10352 10368 10375 10388 10397 10398 10405 10421 10433 10442 10458 10474 10486 10496 10526 10533 10549 10578 10589 10602 10609 10618 10631 10665 10680 10697 10710 10726 10733 10739 10747 10752 10757
10166 10186 10196 10203 10220 10232 10237 10250 10258 10278 10310 10324 10337 10348 10356 10364 10376 10381 10388 10403 10415 10426 10443 10455 10467 10483 10501 10511 10530 10551 10563 10576 10581 10595 10638 10651 10659 10706 10698 10709 10719 10724 10733 10740 10743
10148 10163 10172 10190 10198 10203 10212 10226 10244 10281 10288 10310 10318 10323 10335 10343 10355 10365 10369 10384 10398 10411 10423 10436 10449 10468 10485 10499 10521 10539 10549 10558 10571 10594 10624 10627 10656 10694 10688 10696 10705 10712 10718 10724 10733
10125 10140 10153 10165 10181 10185 10192 10215 10254 10270 10274 10289 10294 10304 10318 10330 10341 10347 10360 10371 10383 10394 10404 10416 10431 10450 10464 10477 10494 10512 10521 10549 10561 10580 10593 10615 10649 10667 10673 10683 10693 10701 10705 10711 10718
10105 10123 10134 10150 10164 10165 10179 10219 10233 10245 10256 10266 10280 10294 10310 10321 10329 10337 10347 10365 10371 10380 10386 10401 10414 10429 10443 10455 10472 10496 10520 10528 10537 10554 10577 10614 10636 10659 10663 10669 10677 10685 10691 10695 10703
10084 10102 10115 10137 10148 10146 10175 10212 10220 10232 10243 10256 10273 10286 10297 10306 10314 10324 10339 10351 10356 10365 10369 10387 10400 10417 10428 10439 10463 10481 10494 10501 10527 10544 10576 10602 10627 10639 10647 10652 10663 10669 10677 10683 10690
10068 10086 10099 10114 10121 10134 10170 10190 10200 10216 10232 10248 10260 10272 10284 10293 10303 10312 10328 10335 10342 10348 10364 10371 10386 10401 10416 10426 10441 10457 10474 10492 10503 10530 10557 10578 10607 10621 10633 10640 10650 10658 10663 10670 10678
10055 10073 10081 10097 10104 10124 10156 10175 10191 10208 10222 10237 10251 10263 10276 10284 10290 10301 10314 10321 10331 10340 10351 10362 10376 10388 10396 10411 10427 10443 10464 10485 10496 10513 10533 10555 10600 10605 10618 10625 10635 10644 10650 10658 10666
10041 10051 10060 10080 10098 10127 10149 10172 10183 10196 10209 10224 10238 10249 10261 10270 10279 10290 10303 10308 10319 10329 10338 10346 10362 10378 10396 10417 10422 10437 10462 10476 10486 10494 10541 10554 10590 10596 10600 10609 10616 10627 10635 10644 10654
10023 10036 10053 10063 10080 10111 10134 10158 10174 10189 10205 10217 10227 10240 10251 10259 10268 10280 10287 10293 10304 10314 10324 10331 10346 10362 10375 10387 10401 10419 10434 10449 10460 10497 10496 10560 10556 10573 10581 10588 10599 10607 10620 10633 10640
10009 10034 10044 10065 10090 10108 10128 10152 10168 10181 10197 10211 10222 10230 10240 10249 10257 10262 10268 10282 10296 10309 10314 10327 10342 10352 10368 10379 10386 10395 10412 10430 10449 10483 10496 10519 10539 10555 10557 10576 10590 10599 10608 10617 10626
10004 10024 10045 10065 10085 10110 10132 10151 10165 10177 10183 10192 10200 10210 10221 10230 10237 10255 10270 10279 10289 10298 10305 10316 10330 10340 10355 10364 10367 10373 10410 10427 10446 10458 10485 10499 10544 10538 10540 10556 10569 10584 10593 10603 10609